This is the latest recevied weather packets stored in our database for station/object KN6WGU. If no packets are shown the sender has not sent any weather packets the latest 10 day(s).
| Time | Temp. | Humidity | Pressure | Rain* | Wind** | Luminosity | Snow |
|---|---|---|---|---|---|---|---|
| 1788562759 | 25° C | 87% | 1007.8 hPa | 0 mm | - | 40 W/m² | - |
| 1788562457 | 25° C | 86% | 1007.6 hPa | 0 mm | - | 41 W/m² | - |
| 1788562157 | 25° C | 86% | 1007.4 hPa | 0 mm | - | 40 W/m² | - |
| 1788561853 | 25° C | 86% | 1007.5 hPa | 0 mm | - | 41 W/m² | - |
| 1788561547 | 25° C | 86% | 1007.2 hPa | 0 mm | - | 45 W/m² | - |
| 1788561246 | 25° C | 86% | 1007 hPa | 0 mm | - | 50 W/m² | - |
| 1788560942 | 25.56° C | 86% | 1007.3 hPa | 0 mm | - | 55 W/m² | - |
| 1788560637 | 25° C | 86% | 1007.6 hPa | 0 mm | - | 61 W/m² | - |
| 1788560337 | 25° C | 86% | 1007.4 hPa | 0 mm | - | 65 W/m² | - |
| 1788560037 | 25.56° C | 86% | 1007.5 hPa | 0 mm | - | 70 W/m² | - |
| 1788559732 | 25° C | 85% | 1007.3 hPa | 0 mm | - | 71 W/m² | - |
| 1788559431 | 25° C | 85% | 1007.6 hPa | 0 mm | - | 72 W/m² | - |
| 1788559127 | 25° C | 86% | 1007.4 hPa | 0 mm | - | 69 W/m² | - |
| 1788558822 | 25° C | 85% | 1007.3 hPa | 0 mm | - | 72 W/m² | - |
| 1788558518 | 25° C | 85% | 1007.4 hPa | 0 mm | - | 81 W/m² | - |
| 1788558214 | 25° C | 85% | 1007.1 hPa | 0 mm | - | 93 W/m² | - |
| 1788557912 | 25° C | 85% | 1007.2 hPa | 0 mm | - | 86 W/m² | - |
| 1788557607 | 25° C | 85% | 1007.1 hPa | 0 mm | - | 101 W/m² | - |
| 1788557303 | 25° C | 85% | 1006.8 hPa | 0 mm | - | 97 W/m² | - |
| 1788556997 | 25° C | 85% | 1006.7 hPa | 0 mm | - | 93 W/m² | - |
| 1788556693 | 25° C | 85% | 1006.6 hPa | 0 mm | - | 89 W/m² | - |
| 1788556387 | 25.56° C | 85% | 1006.7 hPa | 0 mm | - | 93 W/m² | - |
| 1788556083 | 25.56° C | 85% | 1006.8 hPa | 0 mm | - | 101 W/m² | - |
| 1788555782 | 25.56° C | 84% | 1006.4 hPa | 0 mm | - | 103 W/m² | - |
| 1788555478 | 25.56° C | 83% | 1006.4 hPa | 0 mm | - | 97 W/m² | - |
* Rain latest hour (hover to see other rain measurements)
** Current wind speed in m/s (hover to see current wind gust speed)